User: anonymous   Login
Location: Unspecified
(0.0000°N, 0.0000°E)
Time: 00:37:10
(UTC+00:00)
Language:

SR - Orbit

View from above orbital plane
View from above orbital plane
View from above satellite
View from above satellite

Ground track
Ground track

The orbit data is extracted from the following two-line orbital elements,

1    46U 60007B   18265.59146324 +.00000026 +00000-0 +28105-4 0  9997
2    46 066.6909 319.0717 0217562 244.4380 113.4096 14.49173699047260
Epoch (UTC): 22 September 2018 14:11:42
Eccentricity: 0.0217562
inclination: 66.6909°
perigee height: 574 km
apogee height: 883 km
right ascension of ascending node: 319.0717°
argument of perigee: 244.4380°
revolutions per day: 14.49173699
mean anomaly at epoch: 113.4096°
orbit number at epoch: 4726

The dashed part of the orbit path shows where the satellite is in the earth's shadow,  

DLR